LEGION 2

Last updated on Mon Sep 21 2026 00:02:46 GMT+0000 (Coordinated Universal Time)

1 59626U 24081B 26263.50935924 .00002253 00000+0 11663-3 0 9990 2 59626 97.4949 340.4433 0011507 13.5260 346.6279 15.17204781131990
UTC large
Height (km)
Speed (km/s)
/
Latitude / Longitude
Inclination (degrees)
Orbital Period (minutes)
Azimuth
Elevation
Range (km)
Doppler Factor

Next 0 passes for location: London (51.5072 / 0.1276)

No passes found over London.
LEGION 2